Preview of NWS' New Version of Forecast
This preview is not operational and should not be used for support decisions.

Regional Weather Roundup (RWR)

Issued by National Weather Service (NWS)

                            
000
ASPQ40 PGUM 210910
RWRPQ 
WEATHER ROUNDUP FOR THE MARIANAS AND MICRONESIA
NATIONAL WEATHER SERVICE TIYAN GU
700 PM CHST WED AUG 21 2019

GUZ001>004-211000-
MARIANA ISLANDS-
  
CITY           SKY/WX    TMP DP  RH WIND       PRES   REMARKS
GUAM AIRPORT   MOCLDY    82  75  78 N8        29.84R                  
ANDERSEN AFB   MOCLDY    82  73  74 NE5       29.85R                  
ROTA AIRPORT   PTCLDY    81  75  83 VRB5      29.80R                  
TINIAN AP      PTCLDY    82  75  78 E6        29.82R                  
SAIPAN AP      PTCLDY    82  75  78 NE6       29.83R                  

$$

PMZ161-211000-
REPUBLIC OF PALAU-
  
CITY           SKY/WX    TMP DP  RH WIND       PRES   REMARKS
KOROR AP       CLOUDY    79  73  83 S6        29.79R                  
KOROR WSO      NOT AVBL                                               

$$

PMZ171>174-211000-
FEDERATED STATES OF MICRONESIA-
  
CITY           SKY/WX    TMP DP  RH WIND       PRES   REMARKS
YAP AIRPORT    MOCLDY    81  75  83 VRB5      29.80R                  
CHUUK AP       CLOUDY    86  81  84 VRB5      29.74R HX 102           
POHNPEI AP     NOT AVBL                                               
POHNPEI WSO    PTCLDY    82  77  83 SE2       29.79R HX  91           
KOSRAE AP      NOT AVBL                                               

$$

PMZ181-211000-
REPUBLIC OF THE MARSHALL ISLANDS-
  
CITY           SKY/WX    TMP DP  RH WIND       PRES   REMARKS
KWAJALEIN AP   CLEAR     82  77  83 E8        29.83R HX  91           
MAJURO AP      NOT AVBL                                               
MAJURO WSO     MOCLDY    82  77  83 E5        29.81R HX  91           

$$